Wind_Speed
3 1 3 5 7 6 7 6 4 5 5 6 5 4 3 3 3 4 3 4 7 5 3 6 5 7 7 6 5 5 5 6 7 6 6 6 5 6 6 6 7 7 7 6 8 10 9 10 10 9 10 10 10 11 12 13 11 9 8 6 5 3 2 2 1 2 3 4 4 5 6 7 7 6 6 6 6 6 7 8 8 8 7 8 8 8
3 1 7 10 10 7 7 6 5 5 4 5 5 3 2 3 4 4 2 4 7 4 3 4 4 8 8 6 5 4 5 8 9 8 8 7 6 5 6 8 8 6 4 3 6 8 9 10 11 10 11 12 12 12 13 13 12 10 9 7 5 3 2 2 1 1 3 4 4 5 6 7 7 7 6 7 6 6 6 7 7 7 7 7 7 8
2 4 12 11 6 5 5 6 7 5 4 4 3 3 2 3 3 3 1 4 7 3 2 4 5 8 7 5 5 6 8 8 8 9 8 7 7 6 7 8 7 6 4 4 5 7 10 12 12 12 13 14 13 13 14 13 12 11 9 8 7 5 3 1 1 1 2 3 4 5 6 7 7 7 6 7 7 6 6 6 6 6 6 6 6 7
1 7 11 6 6 8 4 5 7 4 2 3 3 3 2 3 2 1 1 3 4 1 1 5 4 5 5 4 4 6 7 6 4 7 7 6 7 7 7 7 7 7 6 5 4 5 8 10 12 13 14 15 14 14 14 14 13 12 10 8 8 7 4 2 2 1 2 3 3 4 5 6 7 6 6 6 6 6 5 5 5 6 6 6 5 6
8 11 3 6 7 8 6 5 7 5 1 2 4 5 3 3 3 2 3 4 1 1 2 5 2 5 3 2 5 4 3 5 4 5 6 5 6 5 5 6 6 6 6 6 5 4 7 10 13 14 14 15 14 15 15 14 13 12 10 8 8 7 5 3 2 2 3 3 3 4 5 5 6 6 6 6 6 6 6 5 5 5 6 5 5 5
10 10 3 6 5 6 7 5 5 7 3 3 3 8 7 6 4 3 6 6 3 2 2 4 3 5 5 2 6 4 2 6 4 4 7 6 4 4 5 6 5 5 4 4 4 5 7 10 11 11 12 13 15 15 15 14 13 11 10 8 8 7 6 4 3 3 4 4 4 5 4 5 6 6 6 7 7 7 6 6 5 6 5 5 5 5
7 5 3 6 5 7 6 4 5 7 5 2 5 10 8 7 7 7 8 6 3 4 3 3 4 3 5 4 6 3 3 7 4 5 8 5 5 5 6 6 5 5 4 4 4 4 6 9 9 9 12 14 15 16 15 14 13 11 10 8 7 7 6 4 3 3 3 4 4 4 4 4 5 7 7 7 7 7 6 6 5 5 5 5 5 5
5 5 4 6 5 6 5 4 6 8 8 3 5 6 8 7 7 8 8 4 2 2 3 4 4 1 4 5 6 2 3 5 6 6 7 5 6 6 6 6 6 6 5 5 5 5 6 8 10 12 14 16 16 16 15 14 13 11 9 8 7 6 5 4 4 4 4 4 4 3 3 4 5 6 7 7 7 6 6 6 6 5 5 5 5 5
3 4 1 6 5 4 5 5 8 11 6 6 1 8 7 6 6 6 6 3 1 2 2 4 2 1 4 6 5 2 2 5 7 8 8 7 6 6 7 7 6 6 5 5 5 5 7 10 13 15 16 17 17 16 15 13 12 11 9 7 7 6 5 4 4 5 4 4 4 3 3 4 5 5 6 7 7 7 7 7 7 6 5 5 5 5
3 5 4 7 5 4 5 4 10 13 6 4 6 10 7 7 6 4 5 3 3 3 3 6 2 2 4 6 3 3 1 6 8 7 7 6 5 5 6 7 6 5 4 5 4 5 8 12 15 15 14 15 16 15 14 13 12 11 9 8 7 6 5 5 5 5 5 5 5 4 4 5 5 6 7 7 7 7 7 8 7 6 5 5 5 5
5 4 2 5 4 5 3 2 4 8 5 5 7 9 7 6 5 4 3 4 4 2 5 6 5 5 2 5 3 2 3 6 6 5 5 5 5 6 7 6 6 5 4 5 4 4 8 10 11 11 12 13 13 14 13 13 12 11 10 8 7 6 6 6 6 6 5 5 5 5 5 6 6 7 7 7 7 7 7 7 7 6 6 5 5 6
5 3 2 2 2 5 7 6 4 1 3 6 5 6 5 4 4 4 4 3 2 3 6 4 3 6 1 5 4 5 6 5 6 6 7 7 8 7 7 6 6 5 5 5 4 4 5 6 7 9 11 11 11 12 13 13 13 12 11 10 9 8 7 7 7 6 6 6 6 5 6 6 7 7 6 6 6 6 6 7 7 7 6 6 6 6
4 3 3 2 2 5 7 5 5 5 4 6 6 6 5 2 3 2 2 1 2 5 3 1 2 3 4 7 6 7 8 7 7 8 8 10 10 9 8 7 6 5 5 5 5 5 4 6 8 11 12 11 12 13 13 13 14 13 12 11 10 9 8 7 7 7 6 6 6 6 6 6 6 5 5 5 5 5 6 7 7 7 7 6 7 6
4 6 5 1 1 2 7 6 3 1 1 5 6 5 5 3 3 0 3 1 2 4 2 2 2 1 4 5 5 7 7 7 8 7 7 10 10 10 8 7 6 5 6 5 5 5 5 7 10 13 14 14 14 14 14 13 13 14 13 12 12 10 8 8 8 8 8 7 6 6 6 5 4 4 4 4 4 4 5 5 5 5 6 6 6 6
1 5 4 2 2 1 4 5 5 6 4 2 3 6 5 4 4 3 3 2 3 3 2 2 2 2 2 3 4 6 7 5 6 4 3 5 4 4 5 5 6 6 5 5 5 6 6 8 12 14 14 15 16 16 15 14 13 13 13 12 12 10 9 9 9 9 9 8 6 6 5 4 3 3 3 4 4 4 4 5 5 5 5 6 6 5
2 4 7 4 1 2 4 3 4 6 4 1 2 5 3 4 5 2 2 5 4 1 1 1 3 3 4 5 5 3 3 1 3 3 4 4 3 5 5 5 6 6 5 5 5 6 6 9 12 14 15 16 17 17 17 15 14 13 13 12 12 10 9 9 9 9 9 8 7 6 6 5 5 5 5 5 5 5 5 6 7 6 6 7 6 6
2 4 7 3 3 1 5 4 5 4 4 1 1 3 4 4 8 5 1 0 3 3 1 1 3 5 3 3 5 5 5 4 3 3 4 4 4 5 5 6 6 6 6 6 6 6 6 8 12 14 16 17 18 19 18 17 16 14 13 12 11 10 10 10 10 9 8 7 7 7 7 6 6 6 6 5 5 5 6 7 7 7 7 7 7 7
3 3 7 1 3 1 3 4 6 4 5 5 3 5 3 3 5 5 2 3 4 2 3 2 2 4 2 2 5 6 3 1 1 2 3 3 4 5 6 6 6 6 6 6 6 5 6 9 12 14 16 17 19 20 20 18 17 16 15 13 12 12 11 11 10 9 7 7 7 7 7 6 6 6 6 6 6 6 7 7 7 7 8 8 8 8
4 1 7 3 2 2 4 6 6 5 3 4 5 4 4 3 1 2 2 1 1 1 3 4 3 3 3 4 4 3 4 6 4 2 3 4 6 6 6 6 6 6 5 5 5 5 6 8 12 14 16 17 19 20 20 18 17 17 17 15 14 13 12 11 11 10 9 9 8 8 7 7 7 7 7 6 6 7 7 7 7 8 9 9 10 11
3 2 5 4 2 2 4 5 2 2 4 3 2 3 2 3 4 3 2 2 3 3 2 3 4 3 6 5 5 8 8 8 7 5 6 8 8 7 6 6 6 6 7 6 6 6 6 9 13 16 17 17 19 20 20 19 18 18 17 17 17 15 13 12 12 11 11 11 10 9 8 8 8 8 7 7 7 7 8 8 9 10 11 11 12 13
3 3 3 5 3 0 0 1 4 5 3 2 2 1 1 2 2 2 2 2 3 4 3 1 1 5 6 4 7 9 8 8 10 9 8 8 7 6 6 7 7 7 7 7 7 6 6 9 13 16 17 18 19 20 20 20 19 18 17 18 18 17 15 13 12 12 12 11 11 10 10 9 8 7 7 7 8 9 9 10 11 12 13 13 13 13
2 3 3 2 3 1 4 5 4 7 6 5 4 4 3 3 4 3 1 1 2 3 4 4 2 7 6 3 6 7 8 9 9 8 8 7 7 7 6 7 8 7 7 8 7 7 7 9 13 15 16 17 18 19 19 19 19 18 18 18 18 17 16 14 12 11 11 11 11 11 10 9 8 8 9 9 10 11 11 12 13 13 13 13 13 13
3 4 4 0 0 3 5 4 2 5 6 5 3 3 4 4 5 5 3 3 2 2 2 4 1 6 6 3 5 6 6 7 7 7 7 7 7 7 7 7 7 7 7 7 7 6 7 11 14 15 15 16 17 18 19 19 19 18 17 17 17 17 16 15 13 12 11 11 11 11 10 10 10 10 11 12 12 12 12 13 13 12 11 10 10 9
2 4 4 1 4 4 5 5 3 2 5 5 2 2 3 2 3 6 5 4 3 2 2 2 1 6 6 3 4 5 4 4 6 7 8 7 5 6 7 7 6 6 6 6 6 5 7 10 12 13 14 15 16 18 19 19 19 18 17 17 17 17 16 15 14 13 12 12 12 12 12 12 12 12 13 13 13 12 12 11 10 8 6 5 4 4
1 2 4 3 3 5 5 6 6 4 2 3 1 2 2 4 6 5 2 4 2 3 5 4 3 6 6 4 3 3 4 4 5 7 7 6 6 6 7 6 6 6 6 6 6 5 6 7 8 11 13 15 17 18 19 19 19 19 18 18 18 18 17 16 15 15 14 14 13 14 14 14 14 14 14 13 12 11 8 6 3 1 2 3 4 5
3 3 4 5 4 2 1 2 3 2 1 1 1 1 2 4 6 3 2 4 1 2 4 4 4 6 6 3 4 2 5 5 5 6 5 5 6 6 6 6 6 6 7 8 7 6 6 6 7 10 13 15 17 18 19 19 19 19 19 19 20 20 19 17 17 16 15 15 15 15 16 16 15 14 13 11 8 5 2 2 4 6 7 7 7 8
4 2 3 7 8 7 7 6 5 4 3 2 3 3 2 3 5 5 4 1 3 3 2 5 6 3 6 4 3 4 5 6 6 6 6 6 6 6 6 6 6 6 7 7 7 6 6 6 7 10 13 16 17 18 19 19 20 20 21 22 21 21 20 18 18 17 16 16 15 15 16 15 13 10 8 5 4 6 7 8 9 10 10 9 9 10
5 2 1 5 6 7 7 4 1 3 3 5 6 5 3 3 4 6 3 3 4 5 3 8 5 5 7 7 6 7 7 6 7 9 9 8 7 6 6 5 6 6 6 6 7 7 8 7 7 9 13 16 17 19 20 20 22 22 23 23 22 22 21 20 19 18 17 16 16 15 13 10 7 5 7 9 11 11 12 12 12 12 11 10 10 11
6 2 1 3 1 2 2 2 1 1 1 3 5 5 5 4 4 4 4 5 7 5 6 7 6 7 9 8 8 9 9 9 9 8 7 6 6 6 7 7 8 7 7 7 8 8 8 8 8 9 13 16 17 19 20 21 23 23 23 24 23 22 22 21 20 19 18 17 15 12 8 6 8 11 14 15 15 14 14 14 13 12 11 11 12 13
6 1 1 3 3 4 4 4 0 2 1 1 1 3 4 6 6 4 3 4 5 3 4 5 7 9 9 8 9 7 6 6 3 2 4 6 7 8 9 9 9 8 9 9 9 9 9 9 9 10 13 15 17 20 21 23 24 25 25 25 25 24 22 20 18 17 15 14 12 10 10 12 15 18 18 17 16 15 15 14 13 12 12 12 13 13
4 1 1 3 4 4 6 5 3 2 2 1 3 4 0 4 4 3 2 2 2 1 1 5 4 7 8 6 6 3 3 4 2 3 6 7 8 9 9 9 9 9 9 10 10 9 8 9 9 10 12 16 20 22 23 25 26 26 26 26 26 25 22 19 16 14 13 13 13 14 15 18 20 20 19 18 17 16 15 14 14 13 13 14 14 14
4 2 0 5 5 3 5 5 6 5 6 4 6 6 2 4 3 3 3 5 5 4 3 4 2 6 7 3 2 0 4 7 6 7 7 6 7 9 10 10 10 10 10 10 10 9 9 10 10 10 14 18 22 24 26 28 28 27 28 28 27 24 20 16 14 13 14 15 16 18 20 22 22 21 19 18 17 17 16 15 15 14 14 14 14 14
3 4 2 3 3 4 5 4 4 4 6 5 6 6 7 6 4 3 2 5 7 7 7 5 6 6 5 2 3 3 4 7 8 8 7 7 8 9 10 11 10 11 12 11 11 11 11 11 12 16 20 23 25 28 30 31 29 29 30 29 25 21 17 15 14 15 16 18 20 22 24 24 23 21 20 19 18 18 17 16 15 15 15 15 15 16
3 4 2 2 3 3 6 3 2 2 1 5 6 5 8 7 7 7 5 7 8 6 3 4 5 4 3 5 7 8 8 9 9 10 9 8 8 9 10 10 10 10 11 10 11 11 11 12 16 21 24 26 29 31 31 30 30 30 28 25 21 17 16 15 15 17 19 22 24 25 26 25 23 22 21 20 19 18 17 17 17 16 16 16 17 18
3 4 2 1 3 2 3 4 3 2 6 8 6 3 5 6 8 9 6 5 7 7 6 5 6 6 7 8 7 7 8 8 6 7 9 8 8 10 11 10 10 10 11 10 10 10 11 13 17 20 24 29 31 30 28 28 29 27 23 20 17 15 16 17 18 20 23 26 27 27 27 25 24 24 23 21 20 19 19 18 18 17 17 17 18 19
5 4 3 2 1 1 2 4 2 5 8 7 5 2 2 1 4 5 5 7 8 10 8 8 9 8 7 6 4 3 4 4 3 4 7 8 7 9 10 11 12 12 12 12 12 13 16 20 23 26 29 31 29 27 27 27 26 23 20 17 16 16 17 19 21 24 27 29 29 28 26 25 25 25 24 23 22 21 20 19 18 18 18 18 18 18
6 4 2 2 0 2 3 1 3 4 8 7 4 1 1 1 2 5 2 7 8 8 9 9 9 8 5 2 1 2 1 1 4 6 6 8 9 9 10 10 11 12 13 15 17 21 25 28 30 31 30 26 25 27 28 26 23 20 18 16 16 17 20 22 25 28 30 31 30 28 26 26 26 25 25 24 23 22 21 20 20 19 18 18 18 17
5 2 3 3 1 1 5 1 3 3 4 6 5 4 2 2 6 5 2 5 7 5 8 9 9 8 5 3 3 1 3 4 3 7 6 8 9 10 10 9 9 11 14 16 18 21 24 26 27 27 25 23 23 26 25 23 21 19 18 17 18 21 23 25 27 30 32 32 30 28 27 26 25 26 26 24 22 22 21 21 20 19 17 17 16 16
9 5 2 3 1 2 5 2 2 3 5 7 6 7 6 4 6 3 2 4 7 4 3 7 9 8 4 5 5 4 4 2 5 7 6 7 8 9 10 10 9 12 16 18 20 21 22 21 21 21 20 22 24 25 23 21 21 20 20 20 22 25 26 27 30 32 33 31 29 27 27 25 25 26 26 23 22 23 21 20 19 18 17 17 16 15
6 5 3 1 1 1 4 3 3 4 4 5 5 8 8 5 1 4 1 6 7 8 6 4 6 5 1 4 5 6 6 5 6 6 6 5 6 8 10 11 11 12 16 19 21 21 19 17 17 19 21 24 26 25 23 22 23 23 23 25 26 27 28 31 33 33 32 30 28 27 26 25 26 26 24 22 23 22 21 20 19 19 18 17 16 16
4 2 1 3 3 3 4 3 3 3 3 4 7 8 7 3 3 4 4 7 6 9 7 3 4 5 1 5 5 5 4 3 4 5 7 4 4 7 9 11 12 13 15 18 19 18 17 18 20 22 24 26 26 24 24 25 25 25 26 28 28 29 31 34 34 33 31 29 28 27 26 25 26 24 21 21 22 21 20 20 19 18 18 17 17 16
3 1 1 3 4 3 3 3 2 3 2 4 8 8 4 0 2 4 5 5 5 7 6 3 3 3 1 4 4 4 5 8 7 6 7 5 5 5 5 6 7 8 10 13 14 16 18 19 20 21 22 23 24 25 28 29 27 27 28 29 29 31 34 35 34 32 30 29 27 26 25 25 24 22 20 21 21 21 20 19 18 17 17 17 16 16
3 3 2 2 3 2 2 2 0 3 2 5 8 6 3 2 3 5 4 3 3 3 5 6 5 4 3 2 3 5 6 7 7 7 7 6 6 5 2 1 3 4 5 7 10 14 18 18 18 20 21 22 24 27 30 31 29 28 28 28 29 34 35 35 33 32 30 29 27 25 23 23 22 20 19 21 22 21 20 19 18 16 15 15 15 14
2 2 1 2 2 2 3 1 2 4 4 4 4 1 0 1 3 3 3 3 2 1 1 3 4 4 4 5 5 5 6 7 7 7 7 6 6 6 5 5 4 2 1 3 7 12 16 17 17 17 18 21 24 27 29 31 30 28 27 29 33 36 35 34 33 31 30 29 27 24 22 22 22 21 22 23 21 19 19 19 18 16 15 13 12 12
0 1 2 2 1 2 3 4 4 4 5 3 1 3 3 4 3 3 3 4 4 2 1 1 3 3 3 5 5 6 6 6 5 5 6 6 6 6 5 5 5 4 3 1 3 8 12 14 16 17 17 19 23 25 27 29 31 29 28 32 36 36 35 35 33 31 30 29 26 24 23 23 23 23 22 21 20 19 20 19 18 16 14 13 12 12
1 1 2 1 2 1 1 2 3 4 5 4 3 4 4 4 3 2 2 4 5 4 2 3 4 5 4 5 5 6 6 6 6 6 4 4 5 5 3 3 4 4 3 2 2 3 7 11 14 17 17 17 20 23 24 28 32 33 33 34 35 35 34 34 32 30 30 29 25 24 25 24 22 21 19 19 19 19 18 17 17 16 14 12 12 13
3 1 2 1 2 1 0 2 5 7 7 5 4 4 4 5 4 3 3 5 5 4 4 5 5 5 6 5 5 5 7 7 8 8 7 6 6 6 4 1 2 4 5 7 7 7 10 13 14 15 17 19 21 25 26 28 31 34 36 36 35 33 32 32 32 31 30 28 26 25 25 23 20 19 20 20 19 18 16 15 16 15 14 14 15 16
3 2 2 1 1 0 2 5 7 6 5 3 2 3 5 7 8 7 5 5 5 4 4 5 4 5 6 6 5 6 8 10 9 8 8 8 8 7 5 5 4 6 6 8 11 13 14 13 13 14 15 16 17 20 23 25 27 32 36 37 35 34 32 32 33 32 30 29 28 25 22 21 22 22 22 21 19 18 16 15 15 15 15 15 15 16
2 2 2 2 2 2 2 5 8 7 4 3 5 5 6 6 8 8 7 6 5 5 5 6 6 5 4 5 5 4 5 9 10 7 6 6 6 6 7 9 5 5 5 3 7 12 13 14 16 16 14 13 14 15 18 21 25 30 34 35 34 35 34 33 33 33 32 30 26 22 22 24 25 25 24 22 20 19 17 16 17 17 17 15 14 14
2 3 3 3 4 2 2 4 5 3 3 6 8 9 9 7 6 7 8 7 7 6 6 7 8 6 4 4 4 1 2 6 8 7 5 6 6 7 8 7 2 4 6 5 7 11 12 14 17 18 16 16 19 20 20 22 26 30 33 35 36 37 35 34 33 32 29 25 23 23 25 27 26 25 24 23 23 21 19 18 17 18 18 18 18 16
2 2 2 3 1 3 4 3 1 0 3 6 6 7 8 7 6 7 7 7 6 5 3 5 6 6 6 6 3 0 2 5 5 4 4 5 6 7 6 4 1 3 6 9 12 15 15 14 15 17 17 18 21 23 23 25 28 31 33 34 35 35 33 33 31 27 23 21 23 25 27 27 26 25 25 24 24 24 23 20 19 19 21 21 20 17
Wind_Direction
113 199 266 235 241 220 193 195 171 161 133 128 130 119 160 196 264 244 241 218 151 133 216 195 215 255 265 263 243 212 190 214 232 233 236 235 235 234 235 241 234 232 239 240 238 235 231 226 220 214 206 198 195 196 198 197 199 202 201 202 206 200 178 162 121 346 343 357 359 356 2 4 4 1 5 12 10 13 22 28 33 39 41 39 45 49
85 184 249 234 232 213 174 175 155 135 105 103 128 130 164 210 248 258 226 185 156 150 232 181 202 255 261 263 245 185 188 222 223 221 229 229 233 238 238 244 240 244 248 198 212 218 213 212 209 204 197 194 195 195 198 201 203 205 207 213 216 214 210 197 209 314 336 353 355 353 357 358 356 356 0 6 8 5 7 17 23 31 38 35 37 43
42 236 250 245 213 149 140 160 160 155 114 88 115 135 182 222 231 298 350 149 161 171 256 177 189 253 269 262 229 190 201 227 220 217 226 217 220 231 232 238 241 248 251 217 207 201 198 197 195 193 193 196 199 198 201 203 205 207 211 219 222 223 229 222 226 307 340 342 342 343 348 352 352 353 352 353 357 357 354 1 10 20 32 34 33 36
237 247 244 228 143 126 114 135 141 136 118 103 117 133 239 231 158 264 314 131 155 153 154 164 188 270 290 288 252 218 215 235 231 226 233 215 215 227 229 233 230 229 233 225 214 191 186 184 182 187 191 195 199 200 203 204 206 210 212 219 224 226 231 224 223 294 316 313 326 336 341 347 349 351 353 356 1 4 3 0 4 13 22 29 31 26
239 252 214 123 140 139 118 132 142 141 233 253 160 168 216 200 171 188 154 125 108 358 100 112 51 310 305 288 266 270 252 246 240 228 238 231 222 229 238 241 229 222 219 207 204 189 173 177 182 187 191 195 199 203 207 208 208 210 212 217 224 226 229 223 214 263 284 286 304 323 331 338 351 359 3 8 8 13 17 10 6 8 11 21 26 18
255 259 148 127 157 139 133 165 172 163 196 298 225 203 195 166 149 125 122 112 97 280 253 110 79 297 310 281 255 285 267 233 232 225 236 232 212 211 228 238 234 228 215 190 194 184 174 181 183 186 193 196 202 208 211 213 212 213 214 216 220 222 224 220 215 247 272 281 294 310 321 333 347 353 360 3 358 1 12 12 5 1 3 12 16 13
263 279 111 139 150 136 152 204 211 169 139 315 240 203 182 143 123 134 140 123 137 226 267 98 137 258 314 295 264 285 231 238 259 244 241 229 200 205 219 228 227 220 208 180 169 166 175 182 179 187 199 202 209 214 214 216 217 216 216 216 215 216 216 211 215 240 259 277 294 306 315 326 334 335 345 353 351 354 4 9 5 358 356 359 3 7
249 297 73 116 115 127 164 222 215 158 129 234 247 167 151 139 138 160 155 133 170 199 350 30 113 147 307 276 279 291 205 255 279 253 250 236 205 208 219 221 214 209 200 182 170 169 183 185 186 196 204 209 215 217 216 216 218 217 216 215 212 210 208 205 214 235 249 267 286 298 306 319 326 328 338 346 344 346 351 355 360 358 354 350 350 356
223 270 191 129 106 140 190 213 182 150 149 246 223 103 124 129 136 158 141 115 52 79 335 316 76 104 274 275 314 18 176 265 265 242 241 234 211 206 216 219 215 208 190 181 178 179 190 194 200 206 209 213 217 218 218 218 219 217 213 212 210 209 208 209 222 235 243 254 267 278 294 312 326 328 335 339 337 340 344 346 350 351 353 352 346 348
247 253 219 137 135 193 216 220 169 156 181 227 110 90 86 78 84 102 108 102 38 49 250 255 157 126 277 281 327 34 249 255 250 243 238 229 217 205 213 220 213 200 177 185 187 186 201 204 207 211 213 217 219 218 219 219 219 216 212 211 212 212 211 213 223 230 236 245 254 265 282 301 319 327 329 331 335 340 344 349 351 347 349 354 346 341
285 287 208 143 165 180 155 64 147 159 156 131 96 78 68 53 51 55 65 86 61 345 262 240 171 129 309 280 242 189 225 220 216 247 245 221 219 208 212 219 208 196 183 184 185 195 212 214 212 214 216 220 221 219 218 218 218 215 213 214 214 214 211 213 222 228 237 246 252 262 277 294 310 320 323 325 333 341 344 353 0 359 357 357 351 342
321 322 250 226 181 129 98 58 34 43 87 92 88 87 81 18 17 32 4 48 104 265 275 257 150 118 162 265 244 230 240 215 192 214 214 207 215 211 206 209 202 195 184 173 177 189 199 203 205 210 216 220 218 217 217 215 216 216 215 217 219 216 211 214 225 231 239 246 252 264 278 292 306 314 318 324 336 346 352 357 2 4 4 359 353 348
323 249 274 311 179 124 103 77 35 12 33 80 94 94 90 23 14 24 326 47 203 250 266 224 127 120 228 249 253 251 250 228 208 208 197 195 206 208 204 201 195 187 180 174 177 179 181 187 192 200 207 210 210 214 215 215 215 215 216 219 222 219 214 219 228 233 239 246 254 266 278 289 299 305 313 324 337 349 353 355 360 3 5 3 1 357
330 306 326 25 216 144 113 119 122 138 144 132 131 122 120 103 68 307 273 293 256 264 274 239 210 301 281 262 241 250 256 231 218 220 200 192 201 204 199 189 181 181 182 180 178 178 185 192 193 197 200 201 205 211 213 214 213 213 216 221 223 222 219 223 232 237 243 248 256 266 274 280 284 291 304 315 326 339 341 341 346 349 353 358 3 4
55 310 293 178 217 218 140 154 164 148 137 163 144 124 140 149 138 193 221 195 223 262 310 281 204 174 242 253 239 253 271 240 211 223 201 187 191 174 161 160 168 182 185 179 181 184 192 195 193 195 197 199 202 205 209 212 211 212 217 221 224 225 223 227 235 241 247 252 254 258 259 259 260 266 277 287 299 309 315 319 322 326 331 333 339 344
100 257 257 257 345 138 178 185 135 109 94 268 117 106 155 179 137 125 176 173 178 150 45 249 221 211 220 261 291 309 333 10 148 152 152 156 128 117 140 166 174 183 184 180 184 187 192 195 193 192 195 198 200 201 205 209 210 212 217 222 225 227 225 227 234 240 249 251 246 241 239 240 249 257 265 274 286 296 303 307 308 313 318 317 320 323
83 275 278 306 54 134 213 186 126 123 139 147 138 170 214 164 117 111 165 84 81 128 199 264 260 296 314 289 320 25 46 40 68 126 154 157 138 140 168 182 181 184 184 184 187 185 184 187 191 193 195 197 198 199 203 208 211 211 215 220 222 224 224 225 230 238 245 242 232 228 228 235 243 249 259 272 285 297 299 298 300 306 312 313 315 315
141 274 295 320 106 277 244 126 75 59 117 120 189 199 180 109 98 107 116 19 40 163 268 325 263 293 338 277 321 11 47 100 152 140 134 140 155 178 192 187 185 185 178 178 176 175 181 184 187 192 197 199 198 200 203 208 212 212 214 218 220 222 223 222 227 233 233 226 219 218 221 227 236 243 257 271 285 296 297 298 304 308 312 319 319 317
120 237 291 292 154 306 349 80 62 1 52 127 181 162 116 130 161 102 124 128 98 179 283 318 302 271 204 221 283 289 215 204 200 174 154 178 193 199 198 189 183 173 166 173 170 172 187 188 186 189 195 200 200 202 206 209 214 216 217 220 222 223 223 224 229 230 227 223 219 219 223 229 237 246 258 270 283 291 295 303 312 313 314 319 320 319
99 132 271 284 210 281 3 65 124 301 6 48 88 73 67 137 158 152 144 153 143 152 236 309 331 273 227 216 203 212 214 193 185 193 197 206 207 199 191 183 179 177 178 181 178 181 190 192 191 190 194 200 202 204 208 211 217 219 219 222 225 227 229 231 232 230 229 227 227 229 233 237 241 248 258 270 280 286 294 305 311 313 314 317 318 318
73 105 225 286 316 71 94 180 184 177 139 71 78 65 5 68 123 148 93 76 123 138 175 178 309 265 251 210 190 207 211 193 191 194 201 214 210 199 193 183 182 187 186 183 179 182 188 193 196 195 196 200 203 207 211 215 218 219 220 223 225 228 232 235 233 229 228 227 231 236 237 239 242 249 261 270 278 285 294 302 306 310 313 317 320 319
127 129 174 292 1 84 234 249 201 176 166 148 157 186 173 130 125 121 69 332 95 116 165 158 203 267 260 209 202 205 196 202 203 187 192 214 206 194 194 189 188 188 186 186 183 181 184 190 195 199 200 201 204 208 211 214 215 216 219 222 227 231 234 235 231 225 225 227 231 235 236 240 246 255 264 270 277 285 292 299 305 311 316 320 323 322
141 113 109 70 225 216 262 285 168 168 154 128 130 159 148 127 117 124 175 228 108 80 143 130 155 270 264 223 223 226 212 207 195 178 191 211 201 189 194 196 195 192 189 187 182 179 185 189 193 197 201 203 206 209 210 212 214 217 220 222 228 233 234 233 231 228 229 230 233 235 239 247 254 261 268 274 280 287 294 302 309 314 319 324 329 334
96 89 87 338 303 304 316 346 29 78 101 97 50 57 106 121 120 138 171 168 128 142 144 106 244 267 275 271 249 247 234 182 173 183 195 201 193 186 193 196 192 188 188 187 185 184 184 187 191 194 199 206 211 213 213 214 216 218 220 223 229 232 232 233 234 235 236 235 237 242 247 255 260 265 271 277 284 291 300 308 313 318 328 340 357 18
172 120 101 79 5 347 347 354 349 343 44 102 66 12 70 103 101 112 123 85 92 184 149 132 225 255 273 307 316 251 195 167 188 197 193 193 191 187 192 194 188 182 181 186 188 180 177 185 191 195 200 206 212 216 216 216 217 218 219 223 227 230 232 235 238 240 242 243 246 251 255 259 263 268 274 279 287 294 299 308 315 11 76 89 88 79
150 144 116 120 134 161 190 271 267 255 320 103 142 65 69 107 115 133 104 72 72 204 138 148 218 263 281 320 354 293 181 177 208 206 205 210 194 186 191 189 184 182 183 188 188 181 181 190 196 200 204 208 213 217 218 217 217 218 220 223 226 230 233 237 241 243 245 248 253 257 260 263 268 272 277 280 280 273 247 145 127 119 113 109 101 89
105 108 116 139 159 180 187 214 222 170 135 176 181 162 150 132 115 106 91 110 189 163 173 218 206 237 276 276 297 262 210 201 207 195 202 214 196 189 197 192 187 188 188 188 187 184 184 192 202 206 209 212 215 218 219 220 220 220 223 224 226 230 234 237 241 244 247 251 256 261 264 268 272 272 266 243 196 164 145 134 127 121 116 109 98 87
97 77 124 145 174 198 186 198 222 132 153 186 186 178 164 138 110 107 122 205 158 119 274 260 195 184 244 251 237 230 222 217 213 202 201 203 192 181 177 178 185 190 188 185 190 193 190 195 207 211 213 215 218 219 221 224 224 224 227 228 229 232 234 237 242 245 249 252 256 260 264 263 253 217 177 160 151 143 136 130 125 120 115 106 93 87
110 98 186 149 205 224 154 17 10 122 135 160 177 190 173 151 152 155 189 193 149 145 240 239 178 193 233 244 232 221 209 208 210 206 195 180 167 159 161 176 188 191 191 193 201 202 196 199 206 209 215 217 218 220 223 225 227 229 231 232 233 235 236 239 242 245 247 249 249 247 237 208 173 157 152 148 143 138 133 128 125 120 113 102 95 94
113 99 206 130 50 11 1 344 321 151 50 87 198 223 186 169 167 162 195 201 161 167 229 186 182 226 240 230 233 233 205 203 204 156 156 161 165 169 175 186 192 192 195 200 205 205 200 204 208 208 212 217 220 223 224 226 228 229 231 232 233 236 238 240 242 243 241 236 225 205 183 165 155 150 148 145 140 135 131 129 126 120 112 104 100 100
96 122 254 94 66 341 332 356 40 91 133 176 328 335 111 145 145 143 156 173 172 260 244 133 168 257 261 228 240 277 133 146 151 181 191 187 177 175 182 192 194 196 202 206 207 206 205 208 211 210 210 214 220 223 225 228 229 230 232 233 234 236 239 239 238 234 224 210 192 177 166 157 152 150 147 143 137 133 131 130 127 120 112 107 105 105
67 121 11 68 79 292 311 2 11 31 62 33 327 307 215 151 170 210 188 174 180 173 139 118 165 255 260 226 220 275 147 165 201 214 207 200 184 180 189 196 196 198 204 207 205 204 206 209 211 212 213 216 220 222 225 228 230 232 233 234 235 237 237 234 228 217 203 191 178 169 162 157 154 149 144 139 134 132 131 128 124 119 112 109 111 113
76 121 142 97 113 249 289 354 13 36 44 351 288 231 193 190 209 235 245 220 195 151 137 174 214 233 247 206 164 196 195 196 212 215 205 202 196 193 201 202 197 201 205 205 203 203 206 209 211 214 216 219 221 223 226 227 228 230 233 234 236 235 229 223 214 202 191 181 172 166 160 157 153 146 141 137 134 133 131 126 122 118 114 115 120 121
73 95 132 133 123 240 281 325 36 31 323 255 246 188 176 198 197 193 224 232 206 176 170 223 235 225 202 188 191 201 206 207 211 209 203 197 189 195 210 211 202 205 208 205 203 204 207 209 213 217 220 222 224 226 228 229 229 231 234 235 234 229 220 211 201 192 182 173 167 162 158 155 151 144 139 138 136 133 129 124 122 119 118 122 127 126
88 82 103 85 100 160 314 20 47 261 239 240 268 259 204 203 186 195 248 262 208 214 248 258 249 229 204 204 209 210 216 225 232 222 211 204 193 192 203 210 204 205 211 210 206 207 210 211 213 219 222 225 228 228 228 229 230 232 232 233 229 220 210 200 190 182 175 167 162 158 155 152 147 141 140 139 136 132 127 124 122 122 124 127 129 128
124 114 118 89 99 164 54 57 157 245 264 279 309 301 210 175 146 174 276 281 218 201 212 227 238 239 229 233 255 274 248 250 290 257 217 209 208 201 200 206 204 202 207 207 202 203 208 209 212 217 221 225 227 227 228 230 230 228 226 225 220 208 199 191 182 174 168 162 158 156 154 151 146 142 141 140 136 131 129 128 126 126 127 128 129 129
110 118 115 83 204 170 119 139 246 293 311 310 325 0 120 57 161 161 215 273 240 194 191 215 240 255 257 238 230 277 292 43 341 291 230 202 208 211 211 214 209 205 211 210 207 209 211 212 214 218 221 223 224 226 228 228 225 220 215 210 204 196 189 182 174 168 163 159 157 155 155 152 147 144 143 141 138 135 134 132 127 124 124 126 131 135
44 75 148 144 206 125 97 54 308 327 292 269 267 284 297 244 225 197 140 294 272 222 199 206 222 240 237 159 164 201 62 65 305 280 244 204 204 207 215 228 223 217 221 219 214 217 218 217 219 222 223 223 225 228 229 226 218 208 198 193 188 183 178 173 168 164 160 157 157 157 156 154 150 148 146 144 141 138 134 129 125 123 121 122 130 137
19 13 72 112 106 100 110 139 226 218 239 253 265 287 303 279 234 192 71 309 292 308 271 219 222 239 225 167 167 142 97 132 249 262 250 216 203 201 208 220 222 222 226 225 221 224 224 221 220 223 222 223 226 229 227 220 211 198 186 181 177 172 169 167 164 161 158 157 158 158 158 156 153 151 148 146 143 139 135 131 129 126 123 120 125 132
36 12 348 328 279 170 139 166 218 223 247 278 288 294 304 309 101 103 107 270 295 335 331 248 248 288 312 152 166 156 159 201 236 267 278 241 206 207 211 214 216 218 223 225 225 227 227 221 215 213 214 219 223 223 218 208 198 188 179 172 168 167 166 164 161 158 157 157 158 159 160 158 156 153 149 147 145 142 140 137 134 131 127 125 126 129
60 35 291 224 213 218 191 192 253 260 262 299 308 301 298 316 75 108 208 246 294 328 322 261 275 304 185 169 191 193 212 270 292 305 313 298 222 222 223 222 222 222 225 228 229 228 224 219 216 214 215 218 218 212 203 194 185 177 170 165 165 166 164 160 158 156 156 157 159 161 162 159 157 153 149 147 148 146 144 142 139 135 132 131 132 133
88 93 256 179 167 189 185 180 274 277 259 311 317 309 305 198 176 208 236 255 285 314 331 1 329 310 222 204 236 259 299 324 332 330 332 320 273 250 223 208 209 214 224 230 228 221 215 212 213 214 215 214 209 201 193 184 175 167 164 164 164 163 159 157 156 155 156 157 159 160 160 159 158 154 149 150 154 152 149 146 142 138 137 137 139 139
141 172 231 202 172 143 94 95 259 244 255 342 346 343 19 74 207 227 266 293 288 319 2 31 33 19 24 4 308 300 311 329 346 350 348 340 323 318 321 193 193 193 198 207 212 209 203 199 201 204 204 201 196 191 185 177 168 163 162 162 160 158 156 155 156 156 156 156 155 155 157 159 158 155 156 161 163 158 152 148 145 143 142 143 144 145
131 166 206 231 189 118 103 157 208 221 254 329 8 33 337 306 245 222 251 295 320 3 50 51 38 33 46 43 23 1 353 354 356 351 348 350 349 349 359 5 1 349 268 217 205 197 190 186 185 185 186 186 183 181 179 173 164 157 158 158 156 156 156 156 157 158 158 156 153 152 154 155 157 162 166 168 167 162 157 153 149 145 142 141 144 145
13 240 177 203 230 140 162 216 230 241 266 287 251 213 254 282 270 228 234 271 302 301 216 36 6 352 35 38 29 29 23 5 355 358 357 353 352 357 11 23 25 17 0 332 197 187 182 176 169 163 165 173 175 174 174 170 161 155 156 158 158 158 158 158 159 160 159 156 154 153 152 154 160 166 167 168 171 171 164 158 154 147 139 137 140 139
302 296 128 177 282 268 186 236 292 319 309 301 278 255 262 271 271 277 278 271 278 290 303 330 327 327 358 20 23 23 10 352 354 4 11 10 357 350 360 43 70 73 80 102 127 167 167 159 155 153 153 161 168 168 168 168 164 160 159 159 159 158 159 159 161 160 158 156 155 154 154 155 156 160 164 171 176 174 166 163 162 153 142 138 138 135
307 349 64 23 346 43 114 304 337 332 308 305 321 314 313 315 311 323 318 282 276 295 304 298 310 337 358 9 13 0 342 340 348 346 346 356 346 327 319 333 112 121 146 158 156 158 158 152 152 155 155 159 167 169 168 168 167 164 162 160 160 161 162 162 161 158 155 154 153 152 153 153 153 159 165 168 167 162 160 167 172 163 150 143 137 131
296 335 31 346 333 31 248 288 321 319 286 276 323 321 328 330 322 323 324 304 297 307 302 296 324 3 359 343 347 354 338 326 324 323 325 326 314 301 288 258 202 162 167 176 163 157 158 158 157 158 158 161 167 169 167 166 165 165 164 163 163 165 165 165 162 158 155 155 154 154 155 157 159 161 159 154 151 152 156 164 167 158 148 144 140 135
292 345 356 342 335 325 304 331 341 341 339 353 344 330 331 329 319 318 322 333 355 3 356 358 10 23 7 326 322 348 332 305 299 297 290 281 271 265 267 264 233 144 129 154 156 155 162 165 162 159 158 162 168 171 171 170 169 168 167 167 169 169 168 165 162 159 158 159 161 161 161 161 160 156 150 145 144 145 146 148 149 144 139 137 137 136
6 3 353 28 22 346 322 354 1 354 319 317 326 333 333 327 326 326 326 341 2 3 2 10 10 11 19 354 326 312 249 278 292 294 276 264 259 254 257 265 261 108 111 134 159 168 174 172 166 166 169 173 175 178 183 184 179 176 175 174 175 175 172 167 162 160 161 163 165 165 164 161 156 151 148 146 143 139 135 134 136 137 134 131 130 131
44 27 18 49 21 268 262 280 333 209 265 279 299 319 319 318 336 337 322 316 317 310 337 29 14 353 352 351 350 121 230 286 299 280 258 269 275 272 280 302 13 147 169 177 180 181 181 179 178 181 185 186 184 186 192 192 186 182 180 178 178 178 175 168 162 158 159 162 163 164 163 158 152 148 148 146 144 140 133 126 125 127 128 128 128 127
Height
762 771 777 775 773 772 773 773 772 776 777 779 783 785 787 789 788 783 780 778 779 787 793 791 792 790 786 786 785 787 788 790 791 791 791 790 790 790 790 789 789 788 786 786 788 789 790 791 792 794 795 797 799 800 801 802 804 805 806 806 807 808 808 809 809 809 809 809 809 809 809 808 808 808 807 807 807 806 806 805 805 804 803 803 802 802
765 776 774 764 764 765 768 771 772 775 777 777 781 784 786 789 785 778 778 780 778 785 792 791 793 792 786 786 785 787 790 789 788 789 789 789 789 789 788 788 787 786 785 786 787 788 789 791 792 793 794 796 798 799 801 802 804 805 805 806 807 808 808 808 809 809 809 809 809 809 809 809 808 808 808 808 807 807 806 806 805 804 804 804 803 803
776 777 764 755 759 763 767 769 770 775 776 778 782 783 785 785 784 780 780 782 780 784 789 791 794 792 786 785 784 785 786 784 783 784 785 786 787 787 786 786 786 786 786 785 786 787 788 790 791 792 794 796 797 799 801 802 804 805 805 806 807 807 808 808 809 809 809 809 809 809 809 809 809 808 808 808 807 807 806 806 805 805 804 804 804 803
781 767 753 753 758 762 768 770 772 775 777 779 781 783 783 782 784 784 785 786 782 783 787 790 794 791 786 784 782 782 782 781 781 781 782 783 784 784 784 784 784 784 784 785 786 787 788 789 791 792 793 795 797 799 800 802 803 804 805 806 807 807 808 808 809 809 809 809 809 809 809 809 809 809 808 808 808 807 807 806 806 805 805 804 804 804
770 753 747 754 757 759 767 772 772 774 777 779 779 779 779 778 781 783 785 786 785 786 786 790 799 793 783 784 781 779 782 781 780 780 781 782 782 782 782 782 783 782 782 784 785 786 788 789 790 791 793 795 797 798 800 801 803 804 805 806 806 807 808 808 809 809 809 809 809 810 809 809 809 809 809 808 808 807 807 806 806 806 805 805 804 804
762 747 746 755 758 760 765 770 770 769 775 778 773 770 772 771 776 783 785 787 795 799 787 788 806 801 785 784 781 779 782 781 780 781 780 780 781 782 782 780 781 781 782 784 785 786 787 788 790 791 793 795 796 798 799 801 803 803 805 805 806 807 808 808 809 809 809 809 809 809 810 810 809 809 809 809 808 808 807 807 806 806 806 805 805 805
755 745 747 754 757 761 765 767 767 766 776 781 767 760 767 770 775 783 784 787 799 803 789 786 803 806 791 781 779 781 783 780 780 781 778 779 781 781 780 779 780 781 782 784 785 786 787 788 790 791 793 794 795 797 799 801 802 803 804 805 806 807 807 808 808 809 809 809 809 809 810 810 809 809 809 809 809 808 808 807 807 806 806 806 806 805
749 744 748 753 756 764 766 764 763 764 775 777 759 756 767 772 775 781 782 786 794 796 792 790 795 805 800 785 783 787 783 780 781 779 777 778 780 780 779 779 779 780 781 783 785 786 787 788 789 791 792 793 795 797 799 800 802 803 804 805 806 806 807 808 808 808 809 809 809 810 810 810 809 809 809 809 809 808 808 807 807 807 806 806 806 805
746 744 745 750 757 763 761 756 757 759 767 766 757 760 768 770 774 779 783 788 793 794 798 797 794 805 805 787 786 789 784 782 779 775 775 775 777 779 779 778 779 780 781 782 784 785 786 787 788 790 791 793 795 796 798 800 801 802 803 804 805 806 807 807 808 808 809 809 809 810 809 810 809 809 809 809 808 808 808 807 807 807 806 806 806 806
745 742 741 746 751 754 752 752 754 755 760 759 759 763 767 773 778 782 787 788 792 799 799 796 795 806 806 788 785 790 785 780 774 771 774 774 777 779 778 778 778 779 781 782 783 785 785 787 788 789 791 793 794 796 798 799 801 802 803 804 805 806 806 807 808 808 808 809 809 809 809 809 809 809 809 809 808 808 807 807 807 806 806 806 806 806
744 740 740 742 744 746 748 754 756 755 756 755 758 763 767 776 780 785 789 787 797 805 797 795 794 800 806 792 782 784 777 772 770 771 774 774 776 777 776 777 777 779 781 781 783 784 785 787 788 790 791 792 794 796 797 798 800 801 802 803 804 805 806 806 807 808 808 809 808 809 809 809 809 809 809 808 808 808 807 807 807 806 806 806 806 806
745 742 742 739 738 743 747 754 757 756 755 755 759 765 774 784 786 789 792 792 807 810 798 800 798 799 809 793 775 774 769 768 768 766 769 771 772 774 774 776 776 778 779 781 783 784 786 787 788 790 790 792 794 795 796 798 799 801 801 803 804 804 805 806 807 807 807 808 808 808 809 808 809 808 808 808 807 807 807 807 807 806 806 806 806 806
745 741 742 739 736 738 744 756 764 760 758 759 763 771 785 800 803 804 807 808 814 808 799 804 800 800 804 783 767 768 765 767 766 761 763 767 768 771 772 773 775 777 778 780 782 783 785 787 787 789 789 791 793 793 795 797 798 800 800 802 803 803 805 805 806 806 807 807 807 808 808 808 808 808 808 807 807 807 807 807 807 806 806 806 806 806
751 745 741 739 738 735 738 752 764 766 763 761 764 773 787 805 815 819 823 823 817 805 800 802 799 800 794 774 767 768 763 763 764 761 762 762 764 767 769 772 774 776 778 779 781 782 784 785 785 787 788 790 791 793 794 796 797 799 800 801 802 802 804 804 805 805 806 806 807 807 807 807 807 807 807 807 807 807 807 807 807 807 807 806 806 805
769 762 745 740 741 736 736 743 749 754 761 764 763 768 778 789 800 809 812 811 811 808 804 801 798 797 787 772 767 765 762 763 761 762 764 763 765 766 768 772 774 776 777 778 780 781 782 784 784 786 787 788 790 792 793 795 796 798 799 800 801 802 803 803 804 804 805 806 806 807 807 807 807 807 807 807 807 807 807 807 807 807 806 806 806 805
777 768 743 738 740 736 736 740 740 748 763 770 766 768 775 772 778 800 811 807 807 808 807 803 797 790 779 766 764 764 762 761 761 762 764 765 766 768 770 773 774 775 777 777 779 780 782 783 783 784 786 787 789 791 792 794 795 797 798 799 800 801 802 802 803 803 804 805 805 806 806 806 807 806 806 806 807 807 807 807 807 806 806 806 806 805
772 762 740 738 742 737 737 737 737 745 758 768 769 769 772 766 768 793 813 815 811 805 807 808 796 783 777 767 762 764 762 761 764 763 764 766 767 768 770 771 773 774 775 776 778 779 780 782 782 783 784 786 788 789 791 793 794 796 797 798 799 800 800 801 802 802 803 804 804 805 805 806 806 806 806 806 806 806 806 807 806 806 806 806 806 805
761 758 743 740 742 739 738 737 737 741 747 761 768 763 765 770 770 780 797 810 814 807 806 810 799 788 788 778 765 764 764 764 766 764 765 768 768 768 770 771 772 773 773 775 776 778 780 780 781 782 783 785 787 788 790 792 793 795 796 797 798 798 799 800 801 802 802 803 803 804 804 805 805 805 806 806 806 806 806 806 806 806 805 805 805 805
757 760 750 742 743 740 736 738 745 748 746 751 755 753 760 772 775 779 791 801 808 812 809 808 807 799 790 779 766 762 764 764 766 767 766 767 767 767 769 770 772 772 774 775 776 778 779 779 781 782 783 784 786 787 789 791 792 793 795 796 796 797 798 799 800 801 802 802 803 803 804 804 804 804 805 805 805 806 805 805 805 805 805 805 805 804
754 763 757 745 743 742 738 742 752 755 751 749 751 754 759 766 771 778 787 789 794 810 815 808 808 796 778 770 761 756 759 761 764 765 763 763 765 766 768 769 771 772 772 774 775 777 778 778 779 780 782 783 785 787 788 790 791 792 794 795 795 797 797 798 800 800 801 802 802 803 803 803 804 804 804 805 805 805 805 805 805 804 804 804 804 804
752 764 761 747 743 746 746 747 751 752 752 754 756 761 764 769 775 777 785 791 788 798 810 810 805 787 766 762 757 751 756 759 758 759 760 761 763 765 767 768 768 770 771 772 774 775 776 778 779 780 781 783 784 787 788 789 791 791 793 794 794 796 797 797 799 799 800 801 801 802 802 802 803 803 804 804 804 804 804 804 804 804 804 803 803 803
748 758 759 752 749 751 749 747 748 747 748 750 751 756 760 765 772 777 789 798 792 792 802 805 799 776 757 759 756 749 753 755 755 757 758 760 762 764 766 766 767 768 769 771 772 773 775 776 778 779 781 783 784 786 787 788 790 791 792 793 794 795 796 796 797 798 799 800 800 801 801 801 802 803 803 803 803 804 803 803 804 803 803 802 801 801
740 748 754 756 754 752 749 749 752 752 750 750 751 757 759 757 760 769 782 789 792 801 804 803 797 773 755 759 757 751 752 752 754 757 756 758 761 763 765 765 767 767 768 770 770 772 774 775 777 779 780 782 783 784 786 787 789 790 791 793 794 795 795 796 797 797 798 799 799 800 800 801 802 802 802 803 803 803 803 802 803 802 802 801 800 800
740 746 754 759 756 749 746 748 752 752 750 750 755 761 763 759 757 762 771 776 785 798 798 799 798 773 753 758 759 754 754 752 754 756 754 757 761 763 764 764 766 767 768 770 770 772 774 774 777 778 779 781 782 783 785 786 787 789 790 792 793 793 794 794 796 797 797 798 798 799 800 800 801 801 801 802 802 802 802 801 801 801 801 800 800 800
739 750 756 764 769 765 759 758 755 751 749 751 758 766 767 764 762 764 772 774 779 790 790 790 792 771 754 759 758 753 754 753 754 755 753 757 760 761 763 763 766 768 768 770 771 772 774 775 776 777 778 780 781 782 784 784 786 788 789 791 791 792 793 793 795 796 796 797 798 798 799 799 799 800 800 801 801 801 801 800 800 800 800 800 799 799
738 751 752 760 776 781 777 772 763 754 754 757 760 764 765 764 761 760 769 772 776 791 794 784 779 765 753 757 757 753 754 753 754 757 755 757 759 759 762 763 764 767 767 769 770 771 773 774 775 776 777 779 780 781 782 783 785 786 787 789 789 790 791 792 794 795 795 796 796 797 797 798 798 799 799 799 799 800 800 800 800 800 800 800 799 799
741 751 749 749 755 761 760 757 756 755 754 755 757 757 761 766 763 759 767 771 773 787 790 774 768 763 753 753 754 753 755 753 753 755 755 756 758 758 761 762 763 765 766 767 769 771 772 773 774 775 776 777 778 779 781 782 783 784 785 786 787 788 789 791 792 793 793 794 795 795 796 796 797 797 797 798 798 799 799 799 800 800 800 800 800 800
738 747 753 749 742 746 750 749 755 756 749 750 752 753 758 765 762 756 761 767 770 781 782 768 767 766 753 748 750 750 753 753 752 752 752 753 755 756 759 762 764 765 765 767 768 769 771 772 772 774 775 776 777 778 779 780 781 782 783 784 785 786 787 789 790 791 792 792 793 793 794 794 795 796 796 797 798 798 799 799 800 800 800 801 801 801
735 745 756 754 746 751 758 758 759 755 752 754 751 749 754 761 761 755 758 766 766 766 766 764 766 763 751 745 745 745 747 747 746 748 749 750 753 755 759 761 762 763 765 766 767 767 769 770 770 772 773 774 776 776 777 778 779 780 781 782 783 784 785 787 788 789 790 790 791 792 792 793 794 795 796 796 797 798 799 799 800 800 801 801 801 801
735 746 757 755 749 753 759 762 761 756 755 756 754 755 755 756 760 759 761 771 769 762 765 768 766 758 748 743 741 742 746 748 746 748 749 749 751 754 757 759 760 762 763 763 764 765 766 767 768 770 771 773 774 774 775 776 776 777 778 779 780 781 783 784 785 786 787 788 789 790 791 792 793 794 795 796 796 797 798 799 800 801 801 801 802 802
733 749 760 753 750 756 757 758 760 759 756 753 755 763 764 760 765 765 764 771 772 766 770 774 768 758 747 743 744 746 748 749 748 749 748 748 750 752 755 757 758 759 760 761 762 763 764 766 767 768 769 770 771 772 772 773 774 775 775 776 778 779 781 782 783 784 785 787 788 789 790 791 792 793 794 795 796 797 798 799 800 800 801 801 802 802
732 751 759 751 753 761 759 758 760 757 757 755 754 758 761 760 760 758 758 762 760 758 766 772 765 752 742 741 746 748 747 746 747 748 748 749 750 751 752 753 755 757 758 758 759 761 762 763 764 765 766 767 767 768 769 770 771 772 773 773 775 777 778 780 781 783 784 785 786 787 789 790 791 793 794 795 796 797 798 799 800 800 801 801 802 803
742 747 751 752 756 762 766 768 762 756 762 764 752 745 749 753 754 755 756 758 754 753 758 760 751 741 740 743 743 744 747 746 745 745 746 747 748 749 749 749 751 753 753 754 756 757 758 759 760 761 761 762 764 764 765 766 768 769 769 771 773 775 776 778 779 781 782 784 785 786 788 789 790 792 794 795 796 797 798 799 799 800 800 801 802 803
747 743 750 757 756 760 770 769 762 766 773 764 747 742 744 745 746 748 746 747 750 750 746 745 742 740 743 743 738 737 741 740 738 738 739 740 743 746 747 747 748 749 749 751 752 752 754 754 755 757 757 758 759 760 762 764 765 766 768 770 772 773 775 776 778 779 781 782 784 785 787 788 790 791 793 795 796 797 798 798 799 799 800 800 802 803
743 744 755 762 759 763 768 765 770 779 769 748 744 751 752 748 746 744 741 741 747 748 743 740 739 736 735 735 734 734 736 735 735 736 736 737 738 740 742 743 745 746 747 748 749 750 751 752 753 754 755 755 756 758 760 761 762 764 767 768 770 771 773 774 776 778 779 781 783 785 786 788 789 790 792 794 795 796 797 798 798 798 799 800 801 803
739 745 755 764 766 767 768 771 777 774 755 739 743 752 752 750 750 748 745 739 736 740 740 736 733 731 732 736 738 738 738 736 736 735 735 737 737 737 738 739 739 741 742 742 744 745 746 747 748 749 749 751 753 756 757 759 761 763 765 766 768 769 771 773 774 776 778 780 782 784 785 787 788 790 791 793 794 795 796 796 797 797 799 800 801 803
742 748 753 763 770 769 771 775 769 763 756 744 741 746 748 748 747 745 743 736 730 735 739 734 731 731 733 738 741 739 737 737 737 733 731 733 734 734 735 734 734 736 736 736 738 739 740 742 743 744 746 749 751 753 754 756 759 761 763 764 766 767 769 771 772 774 776 778 780 782 784 786 787 789 790 792 793 794 795 795 796 797 798 799 801 802
750 754 752 759 770 770 772 775 771 773 770 750 739 746 749 750 748 743 742 737 729 731 736 733 730 730 731 737 741 738 736 740 740 733 726 727 730 731 732 732 732 733 733 734 736 736 737 740 741 743 746 748 749 751 752 755 757 758 760 762 763 765 767 769 770 773 774 777 779 781 783 785 786 787 789 791 792 793 795 796 797 798 798 799 800 802
760 764 757 757 767 768 768 775 779 777 764 747 745 749 748 750 748 742 748 748 734 734 741 737 730 730 731 735 738 737 739 744 742 731 723 723 727 727 728 729 730 731 731 732 734 734 736 738 741 742 745 746 746 748 750 752 755 756 757 759 761 763 765 766 769 771 773 776 778 780 782 784 785 786 788 790 791 793 794 796 797 798 798 799 800 801
765 773 770 766 768 768 766 771 774 766 752 749 752 750 747 748 744 746 761 758 741 741 748 742 736 737 737 739 739 737 737 738 735 728 723 722 724 725 725 725 726 728 729 729 731 733 735 737 739 740 741 742 743 745 747 749 752 753 754 756 758 760 762 764 767 769 772 775 777 779 781 783 784 786 787 789 791 792 793 794 796 797 798 799 800 801
768 777 780 776 773 773 770 768 767 760 753 754 754 749 747 745 743 753 764 757 747 748 748 744 743 743 741 741 739 734 732 732 731 729 726 724 723 722 723 723 723 725 726 727 729 731 733 735 736 737 738 738 740 742 744 746 748 750 752 754 756 758 760 763 766 769 772 774 776 778 780 782 784 786 787 789 791 792 793 794 795 797 798 799 800 800
772 779 781 777 775 776 773 769 768 762 757 757 754 747 745 747 751 759 760 754 753 751 746 745 745 743 742 742 740 737 735 733 732 731 729 727 725 723 722 722 723 724 725 726 727 729 731 732 734 735 736 737 738 740 741 743 746 748 750 752 754 756 759 763 766 768 771 774 776 778 780 782 785 786 788 791 792 792 793 794 795 796 797 798 799 800
771 774 774 772 773 776 774 772 772 767 760 756 753 749 748 753 759 761 756 753 752 750 748 748 746 744 744 742 740 740 738 735 734 733 731 730 729 727 726 725 725 725 725 726 726 727 728 730 731 732 733 734 736 738 739 741 743 746 749 751 754 756 759 763 765 768 771 773 776 778 780 782 785 787 788 790 791 792 793 793 795 796 797 798 799 799
769 771 772 771 769 771 772 772 771 767 761 758 758 757 757 757 757 758 756 752 748 746 747 747 745 746 745 742 741 742 739 738 738 737 735 734 733 731 730 729 729 729 728 728 728 727 728 729 729 731 733 734 736 738 739 740 742 745 749 751 754 757 759 762 765 767 770 772 775 777 779 781 783 786 787 789 791 792 793 794 794 795 796 798 798 799
769 767 768 769 766 766 768 767 765 763 761 760 760 759 758 756 755 756 755 751 747 745 745 744 744 744 742 741 741 740 740 741 740 739 739 738 736 735 733 732 732 733 732 732 732 731 731 730 730 732 734 735 737 738 740 741 742 746 749 751 753 756 758 761 764 767 769 771 774 776 778 780 782 784 786 788 790 791 792 793 794 795 796 797 798 798
766 764 765 766 765 765 765 764 762 762 760 759 760 758 757 756 755 754 753 750 747 745 745 744 744 742 741 740 740 740 742 741 739 738 739 739 739 739 736 733 732 732 732 734 735 735 735 734 734 735 735 737 739 740 742 743 743 745 748 752 754 757 759 762 764 766 769 771 773 775 777 780 782 784 786 788 789 790 791 792 793 794 795 796 797 798
766 765 767 767 767 768 767 764 764 763 761 759 759 757 755 755 754 753 752 750 747 745 745 744 743 741 741 741 740 739 740 741 739 737 735 735 737 739 737 735 732 730 731 732 733 735 737 737 737 737 737 738 740 741 742 744 745 746 748 751 755 758 761 763 765 766 769 770 772 776 778 779 782 784 786 787 787 788 789 790 792 793 794 795 796 798
769 766 768 771 770 768 767 766 763 761 760 761 760 758 756 756 755 753 751 750 747 746 744 743 741 739 739 741 741 738 737 739 741 739 736 735 737 738 739 737 732 729 732 734 734 735 738 739 740 740 740 742 744 745 745 746 747 748 749 751 754 757 761 764 765 766 768 769 772 774 776 778 781 783 784 785 785 787 788 789 791 792 793 795 796 797
769 768 769 771 769 766 767 769 765 761 760 760 760 759 758 757 756 754 752 749 747 745 744 742 741 740 741 743 743 739 738 741 742 741 739 738 738 739 741 739 734 732 735 739 739 739 740 741 742 741 743 746 748 751 752 751 750 751 752 753 755 758 761 763 764 764 766 768 770 772 774 776 779 781 782 783 785 787 788 790 791 791 793 795 796 797
772 773 773 774 775 773 773 773 771 770 769 765 761 760 759 758 757 755 752 749 747 746 745 743 742 742 742 743 743 742 742 742 741 741 739 738 738 740 740 739 738 737 739 741 741 740 740 742 742 742 744 746 748 751 754 753 752 752 752 754 756 758 760 761 762 764 765 767 769 771 773 776 779 780 782 783 785 787 789 790 792 793 794 795 797 798
776 777 776 778 780 778 774 772 773 775 773 768 763 762 761 760 758 755 753 751 749 748 747 745 744 743 742 742 742 742 742 741 740 740 739 739 740 740 740 740 741 741 742 742 740 739 740 742 743 744 744 745 746 749 752 753 753 752 753 755 757 758 760 761 762 765 768 770 772 774 776 778 779 781 782 784 785 787 788 791 793 795 796 797 798 799